Torna al catalogo

STARLINK-32816

AttivoComunicazioniVLEO
NORAD 63050·PAYLOAD·🇺🇸 United States

Lanciato Feb 18, 2025 da Cape Canaveral Space Force Station

Loading…

Prossimi Passaggi (prossime 24 ore)

TLE

AggiornatoSource: CelesTrak SupGP

Epoca: Sep 14, 2026, 23:08 UTC

1 63050C 25034X   26257.96437500  .00008814  00000+0  26044-3 0  2570
2 63050  53.1582 107.8875 0001325  79.2719 149.8818 15.34381757    16

Traccia STARLINK-32816 in tempo reale con AllMySat

Download on the App Store